[[{"header":{"parameterUnit":"m.s-1","parameterCategory":1,"la1":30.2991,"la2":30.254,"lo1":-89.0895,"lo2":-89.0444,"dy":0.0017,"dx":0.0017,"nx":28,"ny":28,"refTime":"2025-11-18T09:00:00:Z","depth":0,"parameterNumber":2,"parameterNumberName":"U-component_of_WINDS"},"data":[0,0,0,0,0,0,0,0,0,0,0,0,0,0,0,0,0,0,0,0,0,0,0,0,0,0,0,0,0,0,0,0,0,0,0,0,0,0,0,0,0,0,0,0,0,0,0,0,0,0,0,0,0,0,0,0,0,0,-2.8546,-2.8547,0,-2.8597,-2.8598,-2.8598,-2.8594,-2.8593,-2.8592,-2.8591,-2.864,-2.8642,-2.8644,0,0,0,0,0,0,0,0,0,0,0,0,0,-2.8443,-2.8445,-2.8546,-2.8547,-2.8547,-2.8597,-2.8598,-2.8598,-2.8594,-2.8593,-2.8592,-2.8591,-2.8639,-2.8641,-2.8644,0,0,0,0,0,0,0,0,0,0,0,0,0,-2.849,-2.8446,-2.8546,-2.8551,-2.8552,-2.8597,-2.8598,-2.8599,-2.8594,-2.8593,-2.8592,-2.859,-2.8638,-2.8641,-2.8644,-2.8686,0,0,-2.8653,-2.8655,0,0,0,0,0,0,0,0,-2.8487,-2.8494,-2.855,-2.8551,-2.8552,-2.8588,-2.8579,-2.8628,-2.8594,-2.8578,-2.8591,-2.859,-2.8623,-2.8627,-2.8639,-2.8688,-2.869,-2.8654,-2.8655,-2.8657,-2.8658,0,0,0,0,0,0,0,-2.8484,-2.8492,-2.8566,-2.8551,-2.8552,-2.855,-2.8556,-2.8588,-2.8606,-2.8579,-2.8579,-2.8585,-2.8624,-2.8636,-2.864,-2.8691,-2.8654,-2.8656,-2.8658,-2.8659,-2.8778,-2.8779,0,0,0,0,0,0,-2.848,-2.8489,-2.8565,-2.8568,-2.8516,-2.8553,-2.8559,-2.8577,-2.8606,-2.8609,-2.8586,-2.8585,-2.8632,-2.8637,-2.8642,-2.8693,-2.8657,-2.866,-2.8661,-2.8776,-2.8778,-2.878,0,0,0,0,0,0,-2.8478,-2.8487,-2.8563,-2.8528,-2.8538,-2.8556,-2.8577,-2.8579,-2.8592,-2.8611,-2.8614,-2.8596,-2.8631,-2.8638,-2.8676,-2.8694,-2.8661,-2.8664,-2.8775,-2.8777,-2.8779,-2.8794,0,0,0,0,0,0,-2.8475,-2.8486,-2.8502,-2.8529,-2.854,-2.8596,-2.8578,-2.8581,-2.8598,-2.8596,-2.8621,-2.8624,-2.8631,-2.8671,-2.8679,-2.8698,-2.8666,-2.8773,-2.8776,-2.8778,-2.8792,-2.8796,-2.88,0,0,0,0,0,-2.8471,-2.8504,-2.8503,-2.8512,-2.8561,-2.8597,-2.8603,-2.861,-2.8599,-2.8615,-2.8628,-2.8624,-2.8692,-2.8675,-2.8683,-2.8704,-2.8772,-2.8775,-2.8778,-2.879,-2.8796,-2.88,0,0,0,0,0,0,-2.8477,-2.8507,-2.8507,-2.8549,-2.8571,-2.8596,-2.8616,-2.8616,-2.864,-2.8637,-2.8645,-2.8651,-2.8689,-2.8701,-2.8681,-2.8746,-2.873,-2.8735,-2.8737,-2.8742,-2.8746,-2.8741,-2.8669,0,0,0,0,0,-2.8483,-2.8511,-2.8536,-2.857,-2.8582,-2.8597,-2.8613,-2.8618,-2.864,-2.8648,-2.8664,-2.8684,-2.8711,-2.8727,-2.8753,-2.8795,-2.88,-2.8813,-2.8818,-2.8821,-2.8824,-2.8847,-2.8853,-2.8789,-2.8789,-2.8789,0,0,-2.8496,-2.8516,-2.8533,-2.8572,-2.8589,-2.8617,-2.8605,-2.8634,-2.8655,-2.8652,-2.8689,-2.8702,-2.8725,-2.8766,-2.8784,-2.8776,-2.8843,-2.8825,-2.8827,-2.8828,-2.8851,-2.8857,-2.8862,-2.8791,-2.8791,-2.8791,0,0,-2.8533,-2.8552,-2.8583,-2.8601,-2.8628,-2.8639,-2.8647,-2.8673,-2.8681,-2.8719,-2.8718,-2.8743,-2.8788,-2.8805,-2.8819,-2.8867,-2.8863,-2.8875,-2.8895,-2.8917,-2.8922,-2.8927,-2.8943,-2.8948,-2.8878,-2.8878,-2.8878,0,-2.8545,-2.8587,-2.8598,-2.8629,-2.8646,-2.8648,-2.8679,-2.8696,-2.873,-2.8741,-2.8733,-2.8791,-2.8807,-2.8851,-2.8863,-2.8875,-2.8883,-2.887,-2.8921,-2.8926,-2.893,-2.8945,-2.8951,-2.888,-2.8879,-2.8879,-2.8879,0,-2.86,-2.863,-2.8652,-2.8686,-2.8706,-2.8737,-2.8752,-2.8771,-2.8775,-2.8786,-2.8825,-2.8845,-2.8875,-2.8886,-2.8889,-2.8931,-2.8926,-2.892,-2.8903,-2.8937,-2.8951,-2.8957,-2.8881,-2.8881,-2.888,-2.888,0,0,-2.8638,-2.8681,-2.8688,-2.8704,-2.8736,-2.8758,-2.879,-2.882,-2.8836,-2.886,-2.8886,-2.8926,-2.8921,-2.8937,-2.8943,-2.8963,-2.8999,-2.8955,-2.8955,-2.896,-2.9045,-2.9048,-2.9054,-2.8998,-2.8999,-2.9,-2.9043,0,-2.8677,-2.8733,-2.8745,-2.8793,-2.8821,-2.8825,-2.8852,-2.8874,-2.8887,-2.8912,-2.8926,-2.8953,-2.8945,-2.8955,-2.8976,-2.899,-2.9015,-2.8987,-2.902,-2.9021,-2.9011,-2.9062,-2.9065,-2.9103,-2.9048,-2.9049,-2.905,0,-2.8729,-2.8756,-2.8807,-2.8837,-2.8848,-2.8873,-2.8902,-2.8927,-2.8952,-2.896,-2.898,-2.8985,-2.9017,-2.9002,-2.9046,-2.9027,-2.9042,-2.9051,-2.9053,-2.9054,-2.9035,-2.9062,-2.9116,-2.9121,-2.9059,-2.9058,-2.9058,0,-2.875,-2.8799,-2.8836,-2.885,-2.8885,-2.8902,-2.8918,-2.8943,-2.8961,-2.8987,-2.8999,-2.9028,-2.9043,-2.9066,-2.9078,-2.9066,-2.9121,-2.9107,-2.9127,-2.9127,-2.9136,-2.9134,-2.919,-2.9149,-2.9149,-2.9149,-2.9149,0,-2.879,-2.8821,-2.8846,-2.8869,-2.8903,-2.8918,-2.8952,-2.8967,-2.899,-2.9015,-2.9021,-2.9044,-2.906,-2.9085,-2.9095,-2.913,-2.9137,-2.9144,-2.9145,-2.9142,-2.9141,-2.9149,-2.9146,-2.9151,-2.915,-2.915,-2.915,0,-2.8817,-2.8836,-2.8877,-2.8908,-2.8917,-2.8941,-2.8968,-2.899,-2.9004,-2.9036,-2.9044,-2.9066,-2.9097,-2.9112,-2.915,-2.9157,-2.9195,-2.9196,-2.9187,-2.9187,-2.9206,-2.9203,-2.9267,-2.9276,-2.9231,-2.9231,-2.9232,0,-2.8841,-2.8865,-2.89,-2.8918,-2.8934,-2.8963,-2.8983,-2.8999,-2.9018,-2.9051,-2.9069,-2.91,-2.9126,-2.9175,-2.9193,-2.9222,-2.9223,-2.9244,-2.9227,-2.9223,-2.9221,-2.9219,-2.9221,-2.9245,-2.9246,-2.9246,-2.9246,0,-2.888,-2.8889,-2.8916,-2.8949,-2.8972,-2.8997,-2.9022,-2.9037,-2.9057,-2.9079,-2.9111,-2.9131,-2.9171,-2.9202,-2.9233,-2.9248,-2.925,-2.9252,-2.9258,-2.9253,-2.9246,-2.9249,-2.9192,-2.925,-2.9249,-2.9249,-2.9249,-2.9249,-2.8905,-2.8926,-2.8955,-2.8986,-2.9008,-2.9032,-2.9054,-2.9072,-2.91,-2.9134,-2.9143,-2.9177,-2.9203,-2.9245,-2.9262,-2.9288,-2.9284,-2.9293,-2.9294,-2.9296,-2.9296,-2.9244,-2.9294,-2.9294,-2.9294,-2.9294,-2.9294,0,-2.8942,-2.8962,-2.8991,-2.9027,-2.9052,-2.9055,-2.9083,-2.9103,-2.9134,-2.9159,-2.9185,-2.9223,-2.9253,-2.9276,-2.9307,-2.9324,-2.9326,-2.9331,-2.9329,-2.9332,-2.9299,-2.929,-2.9329,-2.9329,-2.9329,-2.9329,-2.9329,-2.9329,-2.8965,-2.9002,-2.9014,-2.9062,-2.9081,-2.9116,-2.9132,-2.9154,-2.9174,-2.9216,-2.9242,-2.9258,-2.9282,-2.9315,-2.9344,-2.935,-2.936,-2.9365,-2.9371,-2.9338,-2.9334,-2.9331,-2.9322,-2.9368,-2.9368,-2.9401,-2.9402,-2.9402]},{"header":{"parameterUnit":"m.s-1","parameterCategory":1,"la1":30.2991,"la2":30.254,"lo1":-89.0895,"lo2":-89.0444,"dy":0.0017,"dx":0.0017,"nx":28,"ny":28,"refTime":"2025-11-18T09:00:00:Z","depth":0,"parameterNumber":3,"parameterNumberName":"V-component_of_WINDS"},"data":[0,0,0,0,0,0,0,0,0,0,0,0,0,0,0,0,0,0,0,0,0,0,0,0,0,0,0,0,0,0,0,0,0,0,0,0,0,0,0,0,0,0,0,0,0,0,0,0,0,0,0,0,0,0,0,0,0,0,1.9539,1.954,0,1.9606,1.9607,1.9607,1.9684,1.9685,1.9686,1.9687,1.9754,1.9755,1.9755,0,0,0,0,0,0,0,0,0,0,0,0,0,1.9479,1.948,1.9539,1.954,1.9541,1.9606,1.9607,1.9607,1.9684,1.9685,1.9687,1.9688,1.9754,1.9754,1.9755,0,0,0,0,0,0,0,0,0,0,0,0,0,1.9521,1.948,1.9539,1.9587,1.9592,1.9605,1.9607,1.9608,1.9683,1.9685,1.9687,1.9689,1.9753,1.9754,1.9755,1.9727,0,0,1.9759,1.9759,0,0,0,0,0,0,0,0,1.9519,1.9523,1.9579,1.9584,1.9589,1.9638,1.961,1.9648,1.9683,1.9649,1.9687,1.9689,1.9714,1.9718,1.9727,1.973,1.9733,1.9759,1.9759,1.976,1.976,0,0,0,0,0,0,0,1.9516,1.9521,1.9566,1.958,1.9586,1.9605,1.9613,1.9617,1.9671,1.9652,1.9657,1.9664,1.9717,1.9726,1.9729,1.9734,1.9759,1.976,1.976,1.9761,1.9721,1.972,0,0,0,0,0,0,1.9506,1.9518,1.9563,1.9568,1.9558,1.9605,1.9614,1.9621,1.9671,1.968,1.9663,1.9668,1.9723,1.9728,1.9732,1.9705,1.976,1.9761,1.9761,1.9723,1.9721,1.9719,0,0,0,0,0,0,1.9504,1.9509,1.9561,1.9544,1.9552,1.9604,1.9611,1.9621,1.963,1.9679,1.9689,1.9662,1.9725,1.973,1.9729,1.9708,1.9761,1.9762,1.9725,1.9722,1.972,1.9648,0,0,0,0,0,0,1.9502,1.9508,1.9497,1.9544,1.9553,1.9556,1.961,1.9621,1.9632,1.9639,1.9681,1.969,1.9726,1.9727,1.973,1.971,1.9763,1.9727,1.9724,1.9721,1.9653,1.9644,1.9636,0,0,0,0,0,1.95,1.9473,1.9496,1.9501,1.9541,1.9555,1.956,1.9603,1.963,1.962,1.9652,1.9688,1.9709,1.9726,1.973,1.971,1.9729,1.9725,1.9721,1.9657,1.9645,1.9636,0,0,0,0,0,0,1.9422,1.948,1.9506,1.9494,1.9519,1.9568,1.9556,1.959,1.9607,1.9613,1.9666,1.9674,1.9667,1.9689,1.9706,1.9688,1.9725,1.9721,1.9674,1.9664,1.9656,1.9651,1.9764,0,0,0,0,0,1.9403,1.941,1.946,1.9445,1.9456,1.9504,1.9511,1.9543,1.9571,1.9581,1.9613,1.9639,1.9652,1.9659,1.9673,1.9656,1.9668,1.9645,1.9636,1.9629,1.9626,1.9622,1.9614,1.9707,1.9707,1.9707,0,0,1.9365,1.9398,1.9398,1.943,1.9453,1.9459,1.9512,1.9515,1.9521,1.9582,1.9583,1.9608,1.964,1.9631,1.9629,1.9649,1.9603,1.9625,1.9618,1.962,1.9618,1.9609,1.9601,1.9704,1.9705,1.9705,0,0,1.9299,1.9323,1.9315,1.9337,1.9372,1.9405,1.9402,1.9447,1.9466,1.9468,1.9515,1.9522,1.9542,1.9564,1.9578,1.9523,1.9558,1.9526,1.9483,1.9478,1.9471,1.9465,1.9448,1.9441,1.9523,1.9523,1.9523,0,1.9247,1.9258,1.9306,1.9308,1.9321,1.9378,1.937,1.939,1.9427,1.9435,1.9457,1.9486,1.9511,1.951,1.9497,1.9506,1.9506,1.9522,1.9468,1.9462,1.9457,1.9442,1.9435,1.9519,1.9519,1.952,1.952,0,1.9194,1.9201,1.919,1.9227,1.9239,1.9235,1.9284,1.929,1.9321,1.9352,1.9355,1.9388,1.9411,1.9413,1.9442,1.9417,1.9429,1.9458,1.9497,1.9444,1.943,1.9424,1.9513,1.9515,1.9516,1.9517,0,0,1.908,1.9145,1.914,1.9159,1.9202,1.9209,1.9209,1.9234,1.924,1.9264,1.9267,1.9284,1.9313,1.9328,1.9361,1.9357,1.9315,1.9388,1.9389,1.9375,1.9293,1.9271,1.9264,1.9338,1.9337,1.9336,1.9291,0,1.9023,1.9028,1.9072,1.9065,1.9074,1.9129,1.9129,1.9157,1.9186,1.9198,1.923,1.9243,1.9278,1.9288,1.9287,1.932,1.93,1.9324,1.9343,1.9343,1.9335,1.9256,1.9233,1.9188,1.9286,1.9285,1.9284,0,1.8958,1.898,1.8974,1.9021,1.9026,1.9026,1.9054,1.9064,1.9097,1.9119,1.9137,1.9175,1.918,1.9215,1.9224,1.924,1.9251,1.9269,1.9268,1.9273,1.9311,1.926,1.9175,1.9169,1.9276,1.9276,1.9277,0,1.8878,1.8907,1.8908,1.8921,1.8975,1.8975,1.8997,1.9032,1.9045,1.9068,1.9078,1.9101,1.9114,1.9132,1.9175,1.9197,1.918,1.9219,1.92,1.9199,1.9195,1.9195,1.9111,1.9198,1.9198,1.9198,1.9198,0,1.8812,1.8806,1.8873,1.8874,1.887,1.8921,1.8916,1.8944,1.8975,1.8983,1.9031,1.9038,1.9094,1.9107,1.9141,1.9145,1.915,1.9169,1.9178,1.9166,1.9163,1.9174,1.9179,1.9196,1.9197,1.9197,1.9197,0,1.8722,1.8767,1.8772,1.8824,1.8837,1.8832,1.8876,1.888,1.8913,1.8922,1.8927,1.8979,1.8997,1.9042,1.9072,1.9095,1.909,1.9106,1.9079,1.9086,1.9065,1.9068,1.8987,1.8981,1.9069,1.9068,1.9068,0,1.8678,1.8675,1.8727,1.8737,1.8758,1.8771,1.8785,1.8836,1.8849,1.8888,1.8887,1.8909,1.893,1.8957,1.8997,1.9021,1.9039,1.901,1.9043,1.9032,1.9042,1.9042,1.9044,1.9003,1.9001,1.9,1.9,0,1.8595,1.8618,1.8636,1.8663,1.8678,1.8702,1.8727,1.8732,1.879,1.8801,1.8822,1.8838,1.887,1.8892,1.8923,1.8947,1.8983,1.8989,1.8986,1.8974,1.896,1.897,1.9062,1.8991,1.8991,1.8992,1.8993,1.8993,1.8528,1.853,1.8568,1.8588,1.8613,1.8637,1.8643,1.8678,1.8696,1.8726,1.8755,1.8773,1.8809,1.8854,1.8875,1.8891,1.8909,1.8905,1.8904,1.8902,1.8898,1.8956,1.8896,1.8896,1.8897,1.8897,1.8897,0,1.845,1.8478,1.8495,1.8531,1.8547,1.8581,1.8612,1.8623,1.8639,1.8669,1.8689,1.8714,1.8737,1.8779,1.8806,1.8811,1.8828,1.8816,1.8817,1.8823,1.8878,1.8879,1.8802,1.8802,1.8802,1.8802,1.8802,1.8802,1.8411,1.8417,1.8445,1.8464,1.8492,1.851,1.8526,1.8549,1.8574,1.8599,1.8619,1.8647,1.8683,1.8713,1.8736,1.8749,1.8757,1.874,1.8757,1.8809,1.8818,1.8827,1.8828,1.8741,1.8741,1.8701,1.87,1.87]}]]